Location: Chemnitz
(49.5500°N, 11.5830°E)
Time: 06:29:08
(UTC+02:00)

OTV 5 (USA 277) - Visible Passes

Search period start: 25 April 2018 00:00
Search period end: 05 May 2018 00:00
Orbit: 308 x 325 km, 54.5° (Epoch: 23 April)

Date Brightness Start Highest point End Pass type
(mag) Time Alt. Az. Time Alt. Az. Time Alt. Az.
25 Apr ? 21:50:57 10° WNW 21:53:21 26° N 21:55:44 10° ENE visible
25 Apr ? 23:25:25 10° WNW 23:26:41 23° NW 23:26:41 23° NW visible
26 Apr ? 22:05:34 10° NW 22:08:01 29° N 22:09:40 16° ENE visible
26 Apr ? 23:39:52 10° WNW 23:40:32 16° WNW 23:40:32 16° WNW visible
27 Apr ? 22:20:05 10° NW 22:22:40 37° NNE 22:23:30 28° ENE visible
28 Apr ? 21:00:10 10° WNW 21:02:35 27° N 21:04:58 10° ENE visible
28 Apr ? 22:34:32 10° WNW 22:37:14 61° NNE 22:37:20 60° NE visible
29 Apr ? 21:14:43 10° NW 21:17:14 32° NNE 21:19:44 10° ENE visible
29 Apr ? 22:49:01 10° WNW 22:51:10 48° W 22:51:10 48° W visible
30 Apr ? 21:29:12 10° WNW 21:31:52 46° NNE 21:34:09 13° E visible
30 Apr ? 23:03:40 10° WNW 23:05:01 21° W 23:05:01 21° W visible
01 May ? 21:43:39 10° WNW 21:46:24 85° NE 21:48:02 21° ESE visible
01 May ? 23:18:52 10° WSW 23:18:54 10° WSW 23:18:54 10° WSW visible
02 May ? 21:58:12 10° WNW 22:00:49 43° SW 22:01:56 26° SSE visible
03 May ? 22:13:02 10° W 22:15:08 20° SW 22:15:52 18° SSW visible
